Weather History for KXNA - May, 2013

Change the Weather History Date:

Friday, May 10, 2013

  Actual Average Record
Temperature  
Mean Temperature 60 °F -  
Max Temperature 69 °F - - ()
Min Temperature 54 °F - - ()
Degree Days  
Heating Degree Days 4    
Growing Degree Days 10 (Base 50)    
Moisture  
Dew Point 57 °F    
Average Humidity 92    
Maximum Humidity 100    
Minimum Humidity 68    
Precipitation  
Precipitation 1.91 in - - ()
Sea Level Pressure  
Sea Level Pressure 29.96 in    
Wind  
Wind Speed 6 mph (WNW)    
Max Wind Speed 13 mph    
Max Gust Speed 18 mph    
Visibility 6 miles    
Events Fog , Rain , Thunderstorm    
T = Trace of Precipitation, MM = Missing Value Source: NWS Daily Summary

Daily Weather History Graph

Daily Weather History Graph

Search for Another Location

Airport or City:

Trip Planner

Search our weather history database for the weather conditions in past years. The results will help you decide how hot, cold, wet, or windy it might be!

Date:

Astronomy

May. 10, 2013 Rise Set
Actual Time 6:14 AM CDT 8:12 PM CDT
Civil Twilight 5:46 AM CDT 8:41 PM CDT
Nautical Twilight 5:12 AM CDT 9:15 PM CDT
Astronomical Twilight 4:35 AM CDT 9:52 PM CDT
Moon 6:39 AM CDT (5/10) 9:02 PM CDT (5/10)
Length of Visible Light 14h 54m
Length of Day
13h 58m
New Moon, 0% of the Moon is Illuminated
May 10
New Moon
May 17
First Quarter
May 24
Full
May 31
Last Quarter
Jun 8
New

Hourly Weather History & Observations

Time (CDT) Temp. Dew Point Humidity Pressure Visibility Wind Dir Wind Speed Gust Speed Precip Events Conditions
12:01 AM 60.8 °F 60.8 °F 100% 29.95 in 4.0 mi North 8.1 mph - 0.04 in Rain , Thunderstorm Heavy Thunderstorms and Rain
12:10 AM 60.8 °F 60.8 °F 100% 29.94 in 4.0 mi East 12.7 mph 17.3 mph 0.09 in Rain , Thunderstorm Thunderstorms and Rain
12:25 AM 60.8 °F 60.8 °F 100% 29.96 in 1.5 mi East 6.9 mph - 0.39 in Rain , Thunderstorm Heavy Thunderstorms and Rain
12:32 AM 60.8 °F 60.8 °F 100% 29.98 in 0.8 mi SE 9.2 mph - 0.74 in Rain , Thunderstorm Heavy Thunderstorms and Rain
12:46 AM 60.8 °F 59.0 °F 94% 29.98 in 1.0 mi West 8.1 mph 18.4 mph 1.20 in Rain , Thunderstorm Heavy Thunderstorms and Rain
12:53 AM 60.1 °F 60.1 °F 100% 29.95 in 1.2 mi South 9.2 mph - 1.32 in Rain , Thunderstorm Heavy Thunderstorms and Rain
12:59 AM 60.8 °F 59.0 °F 94% 29.98 in 2.0 mi South 12.7 mph - 0.05 in Rain , Thunderstorm Heavy Thunderstorms and Rain
1:08 AM 60.8 °F 59.0 °F 94% 29.97 in 4.0 mi SE 5.8 mph - 0.08 in Rain , Thunderstorm Thunderstorms and Rain
1:53 AM 59.0 °F 57.9 °F 96% 29.94 in 3.0 mi WSW 4.6 mph - 0.19 in Rain , Thunderstorm Thunderstorms and Rain
2:16 AM 59.0 °F 57.2 °F 94% 29.96 in 2.0 mi Calm Calm - 0.11 in Rain , Thunderstorm Rain
2:22 AM 57.2 °F 57.2 °F 100% 29.96 in 1.8 mi Calm Calm - 0.15 in Rain , Thunderstorm Heavy Rain
2:25 AM 57.2 °F 57.2 °F 100% 29.96 in 2.0 mi Calm Calm - 0.17 in Rain , Thunderstorm Heavy Rain
2:31 AM 57.2 °F 57.2 °F 100% 29.95 in 3.0 mi SSE 5.8 mph - 0.20 in Rain Rain
2:53 AM 57.9 °F 57.9 °F 100% 29.91 in 6.0 mi SSE 5.8 mph - 0.27 in Rain Rain
3:16 AM 57.2 °F 57.2 °F 100% 29.94 in 10.0 mi Calm Calm - 0.02 in Rain , Thunderstorm Light Rain
3:25 AM 59.0 °F 59.0 °F 100% 29.94 in 10.0 mi Calm Calm - 0.02 in Rain Light Rain
3:34 AM 57.2 °F 57.2 °F 100% 29.95 in 7.0 mi NW 3.5 mph - 0.03 in Rain , Thunderstorm Light Rain
3:53 AM 57.9 °F 57.9 °F 100% 29.92 in 5.0 mi South 6.9 mph - 0.07 in Rain , Thunderstorm Light Rain
4:05 AM 59.0 °F 59.0 °F 100% 29.93 in 6.0 mi SSW 5.8 mph - 0.01 in Rain Light Rain
4:53 AM 57.9 °F 57.9 °F 100% 29.88 in 9.0 mi South 4.6 mph - 0.06 in Rain Light Rain
5:01 AM 57.2 °F 57.2 °F 100% 29.91 in 10.0 mi Calm Calm - 0.00 in   Mostly Cloudy
5:18 AM 57.2 °F 57.2 °F 100% 29.92 in 10.0 mi SW 3.5 mph - 0.00 in   Mostly Cloudy
5:26 AM 57.2 °F 57.2 °F 100% 29.92 in 10.0 mi SW 4.6 mph - 0.00 in   Scattered Clouds
5:53 AM 55.9 °F 55.9 °F 100% 29.91 in 8.0 mi Calm Calm - 0.00 in   Clear
6:07 AM 55.4 °F 55.4 °F 100% 29.92 in 2.5 mi Calm Calm - N/A   Scattered Clouds
6:12 AM 55.4 °F 55.4 °F 100% 29.92 in 1.2 mi Calm Calm - N/A   Mostly Cloudy
6:31 AM 57.2 °F 57.2 °F 100% 29.93 in 0.5 mi Calm Calm - N/A Fog Fog
6:43 AM 57.2 °F 57.2 °F 100% 29.93 in 0.2 mi Calm Calm - N/A Fog Fog
6:49 AM 57.2 °F 57.2 °F 100% 29.93 in 0.5 mi Calm Calm - N/A Fog Fog
7:13 AM 57.2 °F 57.2 °F 100% 29.95 in 0.8 mi South 3.5 mph - N/A   Overcast
7:21 AM 57.2 °F 57.2 °F 100% 29.95 in 2.0 mi Calm Calm - N/A   Overcast
7:29 AM 57.2 °F 57.2 °F 100% 29.96 in 5.0 mi SSW 3.5 mph - N/A   Overcast
7:36 AM 57.2 °F 57.2 °F 100% 29.96 in 5.0 mi South 3.5 mph - N/A   Overcast
7:53 AM 57.9 °F 57.9 °F 100% 29.95 in 5.0 mi SSW 4.6 mph - N/A   Overcast
8:17 AM 59.0 °F 59.0 °F 100% 29.97 in 6.0 mi West 4.6 mph - N/A   Overcast
8:53 AM 60.1 °F 60.1 °F 100% 29.97 in 5.0 mi Calm Calm - N/A   Overcast
9:32 AM 60.8 °F 60.8 °F 100% 30.00 in 6.0 mi NW 5.8 mph - N/A   Overcast
9:53 AM 63.0 °F 60.1 °F 90% 29.97 in 10.0 mi NNW 5.8 mph - N/A   Overcast
10:53 AM 62.1 °F 57.9 °F 86% 29.97 in 10.0 mi NNW 9.2 mph - N/A   Overcast
11:53 AM 64.9 °F 59.0 °F 81% 29.98 in 10.0 mi NW 8.1 mph - N/A   Overcast
12:14 PM 66.2 °F 59.0 °F 78% 29.99 in 10.0 mi WNW 8.1 mph - N/A   Mostly Cloudy
12:53 PM 66.0 °F 59.0 °F 78% 29.97 in 10.0 mi NNW 10.4 mph - N/A   Mostly Cloudy
1:53 PM 66.9 °F 57.9 °F 73% 29.98 in 10.0 mi North 12.7 mph - N/A   Scattered Clouds
2:53 PM 66.9 °F 57.0 °F 70% 29.98 in 10.0 mi NNW 8.1 mph - N/A   Mostly Cloudy
3:53 PM 66.0 °F 55.9 °F 70% 29.98 in 10.0 mi NNW 9.2 mph - N/A   Mostly Cloudy
4:53 PM 66.0 °F 55.0 °F 68% 29.97 in 10.0 mi NNW 11.5 mph - N/A   Overcast
5:53 PM 64.9 °F 55.9 °F 73% 29.96 in 10.0 mi NNW 12.7 mph - N/A   Mostly Cloudy
6:53 PM 63.0 °F 54.0 °F 72% 29.97 in 10.0 mi North 10.4 mph - N/A   Scattered Clouds
7:48 PM 60.8 °F 53.6 °F 77% 30.01 in 10.0 mi NNW 6.9 mph - N/A   Mostly Cloudy
7:53 PM 61.0 °F 53.1 °F 75% 29.99 in 10.0 mi NNW 6.9 mph - N/A   Mostly Cloudy
8:18 PM 60.8 °F 51.8 °F 72% 30.02 in 10.0 mi NNW 5.8 mph - N/A   Mostly Cloudy
8:53 PM 57.0 °F 51.1 °F 81% 30.01 in 10.0 mi NW 4.6 mph - N/A   Partly Cloudy
9:38 PM 55.4 °F 51.8 °F 88% 30.03 in 10.0 mi North 5.8 mph - N/A   Mostly Cloudy
9:53 PM 57.0 °F 52.0 °F 83% 30.02 in 10.0 mi North 6.9 mph - N/A   Overcast
10:53 PM 55.9 °F 52.0 °F 87% 30.06 in 10.0 mi North 4.6 mph - N/A   Mostly Cloudy
11:03 PM 55.4 °F 51.8 °F 88% 30.07 in 10.0 mi North 5.8 mph - N/A   Scattered Clouds
11:53 PM 54.0 °F 51.1 °F 90% 30.05 in 10.0 mi Calm Calm - N/A   Clear